Regional Weather Roundup
Issued by NWS State College, PA

Home | Current Version | Previous Version | Text Only | Print | Product List | Glossary On
Versions: 1 2 3 4 5 6 7 8 9 10 11 12 13 14 15 16 17 18 19 20 21 22 23 24 25 26 27 28 29 30 31 32 33 34 35 36 37 38 39 40 41 42 43 44 45 46 47 48 49 50
000
ASUS41 KCTP 220010
RWRCTP

REGIONAL WEATHER ROUNDUP
NATIONAL WEATHER SERVICE STATE COLLEGE PA
800 PM EDT SUN SEP 21 2014

Note: "fair" indicates few or no clouds below 12,000 feet with no
significant weather and/or obstructions to visibility.

* = STATION THAT DOES NOT REPORT PRECIPITATION /E.G. RAIN...SNOW...ETC/
    THUNDER OR FOG.

PAZ002>004-007>009-013>016-020>023-029>032-220100-
WESTERN PENNSYLVANIA

CITY           SKY/WX    TMP DP  RH WIND       PRES   REMARKS
ERIE           MOCLDY    63  54  72 W18G29    29.70S
MEADVILLE      LGT RAIN  57  51  80 W15G28    29.76R
FRANKLIN*      MOCLDY    61  48  63 W7        29.78R
NEW CASTLE     NOT AVBL
BEAVER COUNTY  NOT AVBL
BUTLER*        CLEAR     64  45  48 W8G21     29.79R
PITTSBURGH INT PTCLDY    66  46  48 W22G31    29.78R
PITTSBURGH     PTCLDY    68  44  42 NW13G26   29.76R
INDIANA*       CLEAR     68  48  49 NW13G24   29.78R
LATROBE        CLEAR     66  48  52 CALM      29.76R
WASHINGTON CO* PTCLDY    66  45  45 W10       29.81R
$$

PAZ004>006-010>012-017>019-024>028-033>037-041-042-045-046-049>053-220100-
CENTRAL PENNSYLVANIA

CITY           SKY/WX    TMP DP  RH WIND       PRES   REMARKS
BRADFORD       MOCLDY    59  49  69 W8        29.73R
DUBOIS         MOCLDY    62  55  77 NW14G20   29.74R
CLEARFIELD     CLEAR     66  59  78 NW13      29.71R
JOHNSTOWN      CLEAR     62  57  83 W10       29.76R
ALTOONA        PTCLDY    65  59  81 SW9       29.72R
STATE COLLEGE  MOCLDY    64  61  88 SW7       29.67S
WILLIAMSPORT   TSTM      66  62  87 N6        29.63R
SELINSGROVE    CLOUDY    74  65  73 VRB3      29.62S
FT INDIANTOWN  PTCLDY    70  70 100 S2        29.64S
CAPITAL CITY   HVY RAIN  71  68  90 W9        29.65R FOG
HARRISBURG     CLOUDY    71  69  93 W6        29.63S FOG
YORK           PTCLDY    73  63  70 SW5       29.64F
$$

PAZ038>040-043-044-047-048-054-055-060>062-067>071-220100-
EASTERN PENNSYLVANIA

CITY           SKY/WX    TMP DP  RH WIND       PRES   REMARKS
SCRANTON       MOCLDY    74  61  63 S6        29.63R
MOUNT POCONO   CLEAR     66  50  57 SW6       29.68S
ALLENTOWN      PTCLDY    68  58  70 SW3       29.63R
QUAKERTOWN*    MOCLDY    72  61  68 S3        29.65S
READING        PTCLDY    71  66  84 CALM      29.63S
LANCASTER      PTCLDY    74  63  68 S6        29.64S
COATESVILLE    PTCLDY    72  59  64 SW3       29.67S
POTTSTOWN      PTCLDY    72  60  66 CALM      29.66R
BLUE BELL      PTCLDY    73  64  73 S3        29.64S
DOYLESTOWN     MOCLDY    71  64  78 S3        29.64R
WILLOW GROVE   NOT AVBL
NORTH PHILA    PTCLDY    75  64  68 SW7       29.66R
PHILADELPHIA   MOCLDY    74  66  76 SW6       29.65R
$$


USA.gov is the U.S. government's official web portal to all federal, state and local government web resources and services.